Time+13,TemperatureF,Dew PointF,Humidity,Sea Level PressureIn,VisibilityMPH,Wind Direction,Wind SpeedMPH,Gust SpeedMPH,PrecipitationIn,Events,Conditions,WindDirDegrees,DateUTC
12:00 AM,77.0,73.4,89,29.98,24.9,ESE,9.2,-,N/A,,Mostly Cloudy,120,2012-11-16 11:00:00
1:00 AM,77,73,84,29.95,12,ESE,8.1,,,,Partly Cloudy,120,2012-11-16 12:00:00
1:00 AM,77.0,73.4,89,29.95,24.9,ESE,8.1,-,N/A,,Mostly Cloudy,120,2012-11-16 12:00:00
2:00 AM,77.0,73.4,89,29.92,24.9,ESE,11.5,-,N/A,,Mostly Cloudy,120,2012-11-16 13:00:00
3:00 AM,77.0,73.4,89,29.89,24.9,ESE,11.5,-,N/A,,Mostly Cloudy,120,2012-11-16 14:00:00
4:00 AM,77,73,84,29.91,12,ESE,11.5,,,,Partly Cloudy,110,2012-11-16 15:00:00
4:00 AM,77.0,73.4,89,29.89,24.9,ESE,11.5,-,N/A,,Mostly Cloudy,110,2012-11-16 15:00:00
5:00 AM,77.0,73.4,89,29.89,24.9,ESE,9.2,-,N/A,,Mostly Cloudy,120,2012-11-16 16:00:00
6:00 AM,77.0,73.4,89,29.92,24.9,ESE,11.5,-,N/A,,Mostly Cloudy,120,2012-11-16 17:00:00
7:00 AM,78,73,79,29.93,31,ESE,11.5,,,,Partly Cloudy,110,2012-11-16 18:00:00
7:00 AM,78.8,73.4,83,29.92,31.1,ESE,11.5,-,N/A,,Mostly Cloudy,110,2012-11-16 18:00:00
8:00 AM,78.8,73.4,83,29.92,31.1,East,11.5,-,N/A,,Mostly Cloudy,100,2012-11-16 19:00:00
9:00 AM,78.8,73.4,83,29.95,31.1,East,12.7,-,N/A,,Mostly Cloudy,100,2012-11-16 20:00:00
10:00 AM,80,74,79,29.95,31,East,11.5,,,,Partly Cloudy,100,2012-11-16 21:00:00
10:00 AM,80.6,75.2,84,29.95,31.1,East,11.5,-,N/A,,Mostly Cloudy,100,2012-11-16 21:00:00
11:00 AM,80.6,73.4,79,29.92,31.1,ESE,15.0,-,N/A,,Overcast,120,2012-11-16 22:00:00
12:00 PM,80.6,73.4,79,29.92,31.1,ESE,17.3,-,N/A,,Overcast,110,2012-11-16 23:00:00
1:00 PM,81,74,74,29.94,31,ESE,17.3,,,,Partly Cloudy,110,2012-11-17 00:00:00
1:00 PM,80.6,73.4,79,29.92,31.1,ESE,17.3,-,N/A,,Overcast,110,2012-11-17 00:00:00
2:00 PM,80.6,73.4,79,29.92,31.1,East,18.4,-,N/A,,Overcast,100,2012-11-17 01:00:00
3:00 PM,80.6,73.4,79,29.89,31.1,East,19.6,-,N/A,,Overcast,100,2012-11-17 02:00:00
4:00 PM,77,76,95,29.90,6,East,13.8,,,Rain,Light Rain Showers,90,2012-11-17 03:00:00
4:00 PM,77.0,75.2,94,29.89,9.3,East,13.8,-,N/A,Rain,Light Rain Showers,90,2012-11-17 03:00:00
5:00 PM,80.6,75.2,84,29.86,12.4,East,13.8,-,N/A,,Overcast,100,2012-11-17 04:00:00
6:00 PM,80.6,75.2,84,29.89,18.6,East,17.3,-,N/A,,Overcast,100,2012-11-17 05:00:00
7:00 PM,79,75,83,29.91,6,East,12.7,,,Rain,Light Rain Showers,100,2012-11-17 06:00:00
7:00 PM,78.8,75.2,89,29.89,9.3,East,12.7,-,N/A,,Mostly Cloudy,100,2012-11-17 06:00:00
9:00 PM,77.0,75.2,94,29.92,6.2,East,10.4,-,N/A,Rain,Light Rain Showers,100,2012-11-17 08:00:00
10:00 PM,77,76,95,29.95,12,East,8.1,,,Rain,Light Rain Showers,100,2012-11-17 09:00:00
10:00 PM,77.0,75.2,94,29.95,18.6,East,8.1,-,N/A,,Overcast,100,2012-11-17 09:00:00
11:00 PM,78.8,77.0,94,29.95,24.9,East,8.1,-,N/A,,Mostly Cloudy,100,2012-11-17 10:00:00